Wind_Speed
41 40 37 35 36 38 38 38 37 38 38 38 39 40 40 39 38 38 40 42 44 47 45 44 47 46 41 36 32 34 38 37 34 35 35 35 35 35 35 36 37 37 38 39 41 42 41 40 40 40 41 42 43 43 44 45 47 47 48 47 46 45 45 45 46 46 47 48 49 49 49 50 51 51 50 51 52 53 53 54 55 57 59 60 60 61
43 43 38 37 40 40 39 40 39 39 40 40 41 42 42 41 42 41 42 44 46 49 48 47 50 48 44 41 35 34 38 38 36 34 35 36 36 35 35 35 36 37 38 40 41 42 41 40 40 41 42 43 45 45 47 48 49 48 48 47 45 44 44 44 45 46 47 48 49 49 49 50 50 50 51 51 52 53 53 54 56 58 59 60 62 63
46 44 40 40 42 41 42 42 41 42 42 42 44 45 44 43 45 45 44 46 48 51 51 51 53 50 47 45 39 35 36 38 39 35 34 35 35 35 35 35 37 38 39 40 41 42 41 41 42 43 44 45 47 47 48 49 49 49 48 46 45 44 45 45 46 47 48 49 49 49 49 49 50 50 51 51 52 53 54 55 57 58 60 61 64 65
48 45 43 43 43 43 44 43 43 44 44 45 46 46 46 45 47 49 48 49 50 52 54 55 56 52 50 47 40 36 34 36 40 37 34 35 35 34 34 36 38 40 41 41 42 43 43 43 43 44 46 47 48 49 50 50 50 49 48 47 46 46 46 46 46 48 49 50 49 48 48 50 50 50 50 51 52 53 54 56 58 59 61 63 65 67
47 46 45 44 44 44 45 44 44 45 46 47 47 47 47 47 49 51 52 52 53 54 55 57 58 54 52 50 42 38 35 33 36 37 38 38 35 34 34 35 39 42 43 43 43 44 45 45 45 46 47 48 49 50 50 51 50 49 48 47 46 46 46 46 47 49 49 49 47 47 49 50 50 50 50 51 53 54 55 57 59 61 63 65 67 70
47 45 46 45 44 45 45 45 45 46 48 49 48 47 48 49 50 52 53 55 55 56 55 56 57 55 53 51 45 41 38 33 32 35 39 41 37 34 34 36 40 43 45 44 44 44 45 45 46 47 49 49 50 50 50 50 49 48 46 45 45 45 46 47 48 48 48 47 47 49 51 50 50 50 51 52 53 54 56 58 59 62 64 67 70 73
46 44 45 45 45 45 45 45 45 46 50 51 49 47 48 50 51 53 53 55 57 58 58 56 55 56 55 52 47 43 39 35 33 33 37 41 39 36 36 37 42 46 46 45 45 45 45 46 47 49 50 50 50 49 49 48 47 47 45 43 43 44 45 46 47 47 46 46 48 51 51 50 51 51 52 53 54 55 56 58 60 63 67 70 73 75
45 44 44 44 45 45 45 45 44 46 49 51 49 48 49 50 52 53 53 55 56 59 61 56 53 58 58 53 48 44 39 36 35 35 36 39 39 38 37 39 44 48 49 48 47 46 46 48 49 51 51 50 49 49 49 48 47 46 44 42 42 43 44 45 46 46 47 49 50 51 51 51 52 53 53 54 54 55 56 58 61 65 69 72 75 78
46 45 45 44 45 45 44 44 44 46 48 49 49 49 50 50 52 54 54 56 56 60 63 55 51 58 59 55 51 43 39 38 36 36 37 37 38 38 39 41 46 49 50 49 48 47 48 49 50 51 50 49 48 48 48 47 47 46 44 42 41 42 45 46 46 47 49 51 51 51 51 52 53 53 54 54 54 55 57 60 64 67 71 74 78 81
45 45 44 44 44 43 44 44 45 46 47 48 48 49 51 52 53 55 56 57 58 62 62 55 53 58 60 58 51 42 41 41 39 38 38 37 37 38 39 43 47 50 51 51 49 49 49 49 49 48 47 47 47 47 47 47 47 47 45 43 43 44 46 47 48 49 51 52 52 51 52 53 53 53 54 54 55 57 60 63 66 69 72 76 80 82
44 45 45 44 44 44 44 45 46 46 47 47 49 50 52 53 55 57 58 58 59 62 60 55 54 58 62 59 50 45 44 42 41 40 39 39 38 39 40 44 48 49 52 53 51 49 49 49 47 46 47 48 48 48 47 48 48 47 46 45 46 47 48 49 50 51 52 53 52 52 52 53 53 54 54 55 57 59 62 64 67 70 74 78 81 83
45 45 45 45 45 45 45 46 46 47 47 48 50 51 53 55 58 59 59 59 60 62 60 57 56 59 63 59 50 49 48 44 43 42 40 40 39 39 42 46 48 50 53 54 52 50 50 48 46 47 50 49 48 47 47 47 47 47 46 47 48 49 50 51 52 53 54 53 53 52 53 53 54 54 55 56 59 61 63 66 69 72 75 79 82 84
48 47 47 47 46 45 46 46 47 48 49 50 51 52 54 57 59 60 60 59 61 62 59 58 59 61 63 57 51 52 52 49 46 43 40 39 38 39 44 48 50 51 54 55 53 52 51 48 48 50 50 47 46 45 46 47 47 47 47 48 50 51 52 53 54 54 54 53 52 52 53 54 54 55 56 58 60 62 64 67 70 74 77 81 84 85
51 50 49 47 46 46 47 48 49 50 51 52 53 54 55 57 58 59 59 60 63 62 59 59 61 63 61 56 55 57 56 53 47 42 40 39 38 41 46 50 50 52 55 56 54 52 50 48 50 51 48 46 46 46 47 47 47 48 49 50 52 52 53 54 54 53 53 52 52 53 54 54 54 56 58 60 62 64 66 69 72 76 79 82 85 86
54 54 52 49 48 49 49 49 50 52 53 54 54 55 56 55 55 57 58 60 62 61 61 62 63 63 61 58 60 62 60 56 49 42 40 38 39 44 48 49 49 53 55 56 54 51 49 50 51 51 49 49 48 48 48 48 48 49 50 51 52 53 53 53 53 52 52 51 52 53 54 54 55 58 60 62 63 66 68 71 74 78 81 85 86 87
56 57 55 52 52 51 51 52 52 53 54 54 53 54 54 52 52 55 57 58 59 61 62 62 63 62 60 61 64 64 62 57 48 42 41 40 42 46 49 48 50 54 56 55 54 51 50 51 51 50 50 50 49 49 49 49 49 50 51 52 53 53 53 53 52 52 51 52 53 53 54 55 57 60 61 63 65 68 70 73 76 79 84 86 88 88
57 57 55 55 55 54 54 55 54 54 54 53 51 51 50 50 51 55 57 56 58 61 61 61 63 64 64 67 69 65 61 54 47 43 43 42 43 47 50 50 52 56 56 54 53 51 51 51 50 51 51 50 51 51 51 51 50 50 51 52 53 53 53 52 51 51 51 52 53 53 55 57 59 61 63 65 67 70 72 75 78 81 85 87 88 87
55 56 55 56 57 57 58 57 56 55 53 52 51 50 51 53 55 56 57 58 59 62 63 63 66 69 71 72 70 64 57 52 48 47 46 44 45 48 51 51 53 57 57 55 54 53 52 50 50 51 51 52 53 53 52 51 50 50 51 52 53 53 52 51 50 50 51 52 53 55 56 59 61 62 64 66 68 71 74 77 80 83 86 88 88 85
55 56 57 58 60 60 58 58 58 56 55 54 54 53 55 57 58 57 58 60 62 65 68 67 68 72 72 70 66 61 54 51 50 48 48 47 47 50 51 51 54 57 57 56 56 55 51 49 50 51 52 52 53 52 52 51 50 52 52 53 53 52 51 49 49 50 51 53 54 56 58 60 62 64 65 68 70 73 76 78 81 84 86 88 87 83
56 58 60 61 61 61 60 61 60 58 58 58 58 58 59 61 61 61 62 64 65 66 68 68 69 70 67 64 62 57 51 48 47 47 49 49 49 51 52 53 55 57 58 58 58 54 50 49 50 51 52 52 53 53 52 52 53 53 53 53 52 50 49 48 49 50 52 54 56 58 60 62 63 65 67 70 72 74 77 80 82 84 86 88 86 81
60 61 63 63 63 64 64 63 63 62 62 62 62 62 63 64 65 66 68 69 68 66 67 68 70 69 66 63 59 54 49 47 46 48 50 49 49 51 53 54 56 58 59 59 56 53 50 49 51 52 53 53 54 55 54 54 55 54 53 53 51 49 48 48 49 51 53 54 56 58 61 62 64 67 69 71 74 76 78 81 83 84 86 87 84 80
63 63 62 63 65 66 64 63 65 67 66 66 66 65 65 66 68 70 71 69 67 66 67 70 72 71 67 61 56 53 50 49 48 50 52 50 50 52 54 55 56 57 58 57 54 51 50 51 52 53 54 55 56 56 56 56 55 54 54 51 49 47 48 49 50 52 53 55 57 59 61 63 66 68 71 73 75 77 80 82 84 85 86 86 83 80
63 63 62 63 63 62 62 64 67 69 69 70 70 68 67 67 66 66 66 63 63 66 68 72 75 73 65 56 52 52 52 50 49 49 51 52 52 54 55 55 56 57 57 54 52 51 51 52 53 54 55 56 57 57 57 56 55 54 52 49 47 48 49 50 51 52 53 55 57 60 62 65 68 70 73 75 77 80 82 84 85 85 85 84 82 81
62 62 62 63 62 62 64 67 69 70 71 71 70 67 66 64 61 60 61 62 64 67 69 73 77 73 62 52 49 51 52 51 48 47 50 53 54 54 54 55 56 57 55 53 52 52 53 54 54 55 57 58 59 58 57 55 54 52 49 48 49 50 50 50 50 52 53 55 58 61 64 67 69 72 74 77 79 82 84 86 85 83 83 83 83 82
64 65 64 63 64 67 69 69 70 70 69 68 66 65 64 62 60 61 62 64 68 68 69 73 76 69 58 52 51 52 52 50 47 47 51 52 53 53 54 55 56 56 54 53 53 53 54 55 56 57 58 59 59 57 56 54 51 49 48 49 50 50 49 50 50 52 54 57 60 62 65 68 70 73 76 78 80 83 85 86 84 82 82 82 83 83
67 69 68 67 69 71 70 67 66 65 64 64 63 63 63 62 61 62 62 66 71 72 71 74 75 68 58 55 55 53 51 50 48 50 52 51 52 55 55 55 55 54 54 54 54 55 55 56 57 58 59 60 58 57 55 52 49 48 48 49 49 48 49 50 51 53 55 58 61 64 66 69 71 74 76 78 81 84 86 86 83 81 81 81 83 83
67 70 69 69 70 70 65 61 59 60 62 62 62 63 63 62 63 63 66 71 74 76 75 73 72 70 63 58 54 51 51 52 51 52 52 51 54 56 54 54 54 54 55 54 54 55 56 57 58 59 60 59 58 56 53 50 48 48 49 49 48 49 50 51 52 54 57 59 62 65 67 70 72 74 76 79 82 85 86 85 83 81 81 82 83 83
69 71 70 69 70 69 67 65 63 64 66 66 65 65 63 63 64 66 71 74 73 77 79 72 70 74 70 60 53 49 52 55 53 52 52 54 56 55 53 54 56 58 57 55 55 56 57 58 59 59 60 59 57 55 52 49 48 48 49 49 49 50 52 53 54 56 58 60 63 65 68 70 73 75 77 80 83 85 85 84 83 82 82 82 83 83
71 73 71 71 73 73 72 70 68 69 70 69 67 66 64 64 67 70 73 73 72 78 81 74 73 75 71 62 54 51 53 55 54 54 55 56 55 54 56 58 59 60 58 55 55 57 58 59 59 59 59 57 56 54 51 49 49 49 49 49 50 52 53 54 56 57 60 62 64 66 69 71 73 76 78 80 83 85 86 85 84 84 84 84 84 84
71 73 71 72 74 73 71 70 68 69 71 71 71 70 68 69 72 75 76 74 73 78 80 76 76 75 67 62 58 55 55 56 56 56 56 55 56 57 59 61 61 60 57 55 57 58 59 59 59 58 58 56 54 52 50 49 49 49 50 51 52 54 55 56 57 59 61 63 65 67 70 72 74 77 79 80 83 85 86 86 86 87 86 85 84 84
72 73 72 72 75 76 74 72 71 72 74 75 75 74 73 74 76 77 76 74 74 76 76 75 76 73 65 61 60 58 56 56 58 57 55 55 58 60 61 62 63 60 56 56 58 60 60 59 58 58 57 55 53 51 49 49 50 51 51 52 54 55 56 58 59 61 63 64 66 68 71 73 75 77 79 80 82 84 86 87 88 88 86 85 85 85
67 69 69 71 77 79 76 75 76 77 76 77 78 76 73 72 72 72 72 73 74 75 73 72 74 72 64 61 62 60 56 58 61 58 56 58 61 62 63 64 63 59 56 58 60 61 60 58 58 57 56 54 52 50 49 50 51 52 52 53 55 56 57 59 61 62 64 65 68 70 72 74 76 78 79 79 81 83 85 87 88 87 85 85 85 84
69 71 71 72 78 79 74 73 76 77 77 79 79 75 69 67 67 68 70 72 72 72 72 72 73 69 63 61 62 60 58 64 66 61 58 62 64 64 64 64 63 59 57 60 62 60 59 58 57 56 54 53 51 49 49 51 51 52 53 54 56 58 59 61 62 64 65 66 69 71 73 75 76 77 78 79 80 82 84 85 86 85 85 85 84 83
77 79 77 75 76 76 73 72 76 79 81 81 78 72 68 66 67 70 74 73 71 72 74 73 71 66 63 63 63 61 63 66 66 62 63 67 68 66 64 62 60 58 59 62 63 60 59 59 58 56 55 53 52 50 51 52 52 53 54 56 57 59 61 63 63 65 66 67 70 72 73 75 75 76 77 78 80 81 82 84 84 84 85 84 82 81
83 83 82 80 80 81 81 79 80 85 84 80 75 71 68 68 69 73 75 73 71 71 71 70 68 65 65 65 64 65 65 63 64 65 66 68 69 66 62 60 58 58 61 64 63 61 61 60 59 59 58 56 54 52 52 52 53 54 56 57 59 61 62 63 64 65 66 68 70 72 73 74 75 75 76 77 79 81 82 82 83 83 83 82 81 79
85 83 83 83 85 87 87 86 88 89 85 78 74 69 66 67 68 70 73 72 68 66 67 68 68 66 67 67 65 64 61 61 65 67 65 66 67 65 63 61 60 62 63 63 63 63 62 62 62 62 61 59 56 54 53 53 54 56 57 59 60 61 62 63 64 65 67 69 70 72 73 73 73 74 75 77 79 80 80 81 82 82 82 81 79 77
83 83 83 84 86 87 88 88 88 86 82 76 70 62 61 64 64 66 73 72 65 62 64 68 68 67 68 66 62 59 59 63 68 67 65 68 69 66 65 65 65 66 65 64 64 64 63 64 63 63 63 60 56 54 53 55 57 58 59 60 61 62 63 64 65 66 68 69 71 71 71 71 72 73 75 77 79 79 79 80 81 81 81 79 77 76
86 84 82 82 83 83 82 82 82 84 84 80 73 67 65 66 65 66 71 71 63 59 61 64 66 65 63 61 59 59 61 67 71 67 65 69 72 69 68 68 67 67 67 67 68 67 66 65 64 63 61 56 53 54 56 57 59 60 61 61 62 63 64 65 66 67 69 70 70 71 71 71 72 74 76 77 78 77 78 79 80 80 80 77 76 75
87 85 81 78 78 77 78 80 83 87 87 83 79 74 71 70 68 67 72 74 65 56 55 58 60 60 59 57 57 58 60 65 67 63 62 67 70 69 68 67 66 66 67 69 70 70 69 67 64 60 55 53 54 57 59 60 60 61 62 62 63 64 65 66 67 68 69 70 70 70 70 71 72 74 76 77 76 76 77 78 79 79 78 76 75 74
85 83 79 75 74 73 75 79 82 85 84 80 75 71 69 70 68 68 75 75 62 52 52 57 59 60 57 53 50 52 57 62 63 60 59 62 65 66 67 67 67 67 69 71 72 73 72 67 62 56 53 55 59 62 62 62 62 62 63 63 64 65 66 67 68 69 70 70 70 70 70 71 72 74 75 75 75 75 76 77 78 77 76 75 74 73
85 81 77 76 75 73 76 80 83 84 81 74 67 64 64 65 65 68 71 65 55 54 59 61 60 59 52 47 51 60 66 66 63 60 59 59 61 63 66 68 69 70 70 70 71 73 72 67 62 58 58 62 65 66 65 64 63 64 65 64 64 66 66 67 69 70 70 70 70 70 70 71 72 73 73 74 74 75 76 76 76 76 75 73 73 73
79 77 77 77 77 77 80 81 83 83 76 64 59 61 62 62 65 67 66 61 61 68 71 65 60 56 52 55 65 70 69 67 65 64 61 58 59 61 63 66 67 67 66 66 66 69 71 67 63 62 65 68 68 67 67 66 65 66 66 64 64 66 67 68 69 70 70 70 70 70 70 70 71 72 73 73 74 74 75 75 75 74 73 72 72 73
79 79 82 84 83 83 84 83 84 84 75 64 63 69 70 69 70 71 70 71 73 75 72 65 60 56 60 69 73 67 63 64 64 63 61 58 58 60 62 61 60 59 60 60 61 63 65 64 63 65 69 70 68 67 67 67 67 66 65 64 64 65 66 67 69 69 69 70 70 69 69 69 70 71 72 72 73 73 73 73 73 72 71 71 71 72
89 88 90 92 91 90 91 91 90 87 80 75 78 81 81 79 76 75 77 78 76 71 67 63 60 62 70 77 71 61 59 62 61 60 59 58 58 60 61 58 55 54 55 55 58 60 62 63 64 66 69 68 67 68 69 69 67 65 63 63 64 64 65 67 69 69 70 70 69 68 68 69 70 71 72 72 72 72 72 71 71 70 70 70 71 72
95 92 91 94 95 95 96 95 93 89 87 88 90 89 87 86 82 79 77 76 71 66 63 63 65 70 78 79 70 61 58 58 59 60 62 62 62 63 62 60 59 60 59 59 60 62 62 63 64 65 67 67 68 70 70 67 64 62 62 63 63 63 64 67 69 70 70 70 68 67 67 68 70 71 71 71 71 71 70 69 69 68 69 70 70 72
99 96 96 97 99 100 100 99 95 91 89 89 89 88 86 85 84 81 77 73 67 62 62 67 72 77 80 76 68 61 58 59 63 66 68 69 68 67 65 65 67 68 68 66 63 60 59 60 63 65 67 69 70 70 68 63 61 60 61 61 61 62 64 66 68 69 70 69 67 67 67 68 69 70 70 70 69 68 67 67 66 67 68 69 70 72
100 98 98 98 100 101 102 99 94 90 88 87 87 87 87 85 84 82 78 72 67 66 69 74 78 79 76 70 64 61 60 62 66 69 70 69 70 71 70 69 69 70 69 66 62 59 58 61 65 67 69 70 70 67 63 60 59 60 60 59 60 61 64 66 67 69 69 69 67 67 67 68 69 69 69 68 67 65 65 64 65 66 67 68 70 72
97 97 97 98 99 100 99 94 88 85 85 85 85 85 84 82 78 75 73 73 73 75 77 78 77 76 73 67 64 62 61 61 65 67 68 67 68 69 68 68 69 68 66 63 61 61 62 65 67 68 69 69 68 63 60 60 60 59 58 58 59 61 64 65 66 67 68 68 68 67 67 67 68 68 67 65 63 62 61 62 63 65 66 68 70 72
85 86 87 88 89 90 88 84 81 82 85 86 87 87 86 84 82 80 81 83 84 83 81 79 77 75 72 68 66 66 65 63 62 64 64 64 63 63 65 67 68 67 64 61 60 63 66 68 70 70 70 70 68 63 61 60 59 58 57 57 59 61 62 63 64 66 68 68 67 67 66 66 66 65 64 62 60 58 58 59 61 64 66 68 71 73
74 76 77 79 82 84 83 82 84 87 91 93 94 95 96 95 95 95 95 94 91 89 86 84 82 79 76 73 72 72 71 67 63 62 60 58 58 60 62 63 63 63 63 62 61 64 68 70 72 74 74 72 67 63 61 59 57 56 56 57 59 60 61 62 63 65 67 67 66 66 65 64 64 62 60 58 56 56 57 58 60 63 66 68 71 73
83 83 83 86 91 93 93 92 93 95 98 100 99 99 99 98 97 98 98 97 95 93 92 91 88 85 81 77 74 75 74 70 66 64 61 58 58 60 60 60 60 61 62 63 64 66 69 71 73 74 73 68 64 61 58 56 55 56 56 57 58 59 60 61 63 65 66 65 64 64 63 62 61 58 56 54 54 54 56 58 60 63 65 68 70 72
Wind_Direction
282 283 285 287 286 285 288 289 290 291 292 293 293 294 296 298 299 298 298 300 300 300 302 303 302 305 310 311 310 306 302 303 302 300 301 302 302 303 307 311 310 307 304 302 300 300 300 300 299 297 297 296 296 297 297 298 298 298 297 295 292 289 288 288 288 290 292 293 295 296 296 296 295 294 294 295 297 300 303 304 305 305 305 303 302 301
283 283 285 286 285 287 289 289 290 291 291 292 293 294 296 298 298 298 297 298 299 299 302 302 302 305 309 309 309 306 302 302 301 300 300 300 300 302 306 309 308 305 302 300 299 298 298 299 298 298 297 296 296 296 297 297 297 297 297 296 293 290 288 289 290 291 292 293 294 295 295 295 294 293 294 296 299 302 303 304 305 305 303 302 302 301
282 283 286 285 286 288 289 289 290 290 291 292 292 293 296 298 298 297 297 298 298 299 301 302 302 305 308 307 308 305 302 301 299 299 299 297 299 302 305 306 304 303 301 299 298 298 299 299 299 298 297 297 296 296 296 296 296 296 297 297 294 291 290 291 291 292 292 293 294 293 294 294 295 295 296 298 300 301 302 303 304 303 303 302 302 301
282 284 285 285 286 288 288 288 289 290 291 291 291 293 295 297 297 297 298 297 298 299 301 302 302 305 307 306 306 304 301 299 297 299 300 299 301 303 304 304 303 302 300 300 300 299 299 298 298 297 296 296 295 295 295 294 295 296 297 298 296 293 292 292 293 293 293 294 294 293 294 296 297 298 298 299 300 301 301 303 304 303 303 303 302 301
283 284 285 285 286 286 286 287 288 289 290 289 290 292 294 295 296 297 297 297 297 298 300 302 303 306 306 305 306 304 302 298 297 302 305 304 305 304 304 303 300 299 298 299 300 299 298 297 296 295 295 295 295 295 295 294 295 297 298 298 297 295 293 292 293 294 294 294 294 294 295 298 299 299 299 300 300 301 302 304 304 304 304 304 302 300
283 285 285 286 285 285 285 286 288 289 288 288 289 292 293 294 295 295 296 297 297 298 299 300 303 307 306 304 307 308 306 302 302 306 307 307 308 307 305 302 297 295 295 297 298 298 297 297 296 296 296 296 297 297 296 296 297 299 301 300 297 295 293 292 293 294 295 295 295 296 298 299 299 300 300 301 301 303 304 305 305 306 305 303 301 298
284 286 286 286 286 285 285 287 288 288 287 288 290 292 292 293 294 294 294 295 296 298 298 298 303 306 303 302 307 309 306 306 308 308 305 305 309 309 306 301 297 295 295 296 298 298 297 297 297 299 299 299 300 299 298 298 299 302 303 301 296 293 291 291 293 295 297 297 297 298 299 299 299 300 301 302 303 305 305 306 306 306 304 302 300 297
286 286 286 286 286 286 286 287 287 286 287 289 291 292 292 292 292 292 293 293 294 297 296 298 302 302 300 302 306 306 306 309 310 308 305 305 308 309 306 301 297 295 296 297 297 298 298 298 299 301 303 302 301 301 300 300 301 303 304 300 295 292 291 291 294 297 298 299 299 299 298 298 300 300 301 303 305 306 306 307 306 305 303 301 299 296
286 285 285 285 285 286 287 287 286 285 287 289 291 292 291 290 290 290 291 291 293 295 296 299 301 298 298 300 302 306 309 310 310 308 308 307 307 307 305 301 297 296 297 297 298 299 300 301 302 304 305 304 303 301 300 300 301 303 303 299 294 291 291 293 296 298 299 300 299 298 297 298 299 300 302 303 305 306 306 306 306 304 303 300 297 295
284 284 284 284 285 285 285 285 285 286 287 289 290 290 289 289 289 289 289 290 292 293 296 300 298 296 297 297 300 307 308 309 311 310 309 309 307 306 303 299 296 297 298 298 299 301 302 303 305 306 306 306 305 303 300 299 301 302 300 296 293 291 292 293 296 298 299 299 297 296 296 297 299 300 302 303 304 305 306 306 305 304 302 299 297 295
282 282 282 282 283 283 283 284 285 285 286 287 287 287 288 288 288 288 288 290 291 293 296 297 296 295 294 296 303 307 305 307 310 309 310 310 307 305 302 298 297 299 300 300 301 302 303 304 305 306 307 307 305 302 300 299 300 300 298 296 295 294 293 294 296 298 298 297 295 295 296 297 299 301 302 303 304 305 305 305 305 303 301 299 296 294
279 279 280 280 280 281 283 284 284 285 285 285 285 286 286 287 287 288 289 291 291 291 293 294 294 292 290 296 305 304 302 305 306 308 311 309 307 305 302 298 299 302 302 300 301 303 304 304 305 306 306 305 303 300 299 299 299 298 297 296 296 295 294 294 296 296 295 294 294 294 295 298 299 300 301 303 304 304 305 305 304 302 300 298 295 295
278 278 278 279 280 281 283 283 284 284 284 284 285 285 286 287 288 289 291 292 290 290 292 293 292 290 292 299 303 300 300 303 305 310 311 307 307 306 302 300 302 303 301 299 301 303 303 303 303 306 306 304 301 299 299 298 297 297 296 295 295 295 295 294 294 293 293 293 293 294 296 298 299 300 301 302 302 303 304 304 303 302 300 298 296 297
280 280 280 281 282 282 283 283 283 283 284 284 285 285 285 287 289 291 293 292 290 290 292 292 290 291 296 300 300 297 299 302 308 312 309 306 308 306 302 301 303 302 298 298 301 303 303 302 304 306 306 302 299 298 297 296 296 296 295 294 294 294 293 292 291 291 292 292 293 295 297 298 299 300 300 301 302 303 304 304 303 301 300 298 298 300
285 284 283 284 284 283 283 282 283 283 283 284 285 285 286 288 291 292 291 290 290 291 291 291 291 293 297 298 296 296 299 305 311 312 308 307 308 305 303 304 304 300 297 299 302 304 303 303 304 305 303 300 298 297 296 295 294 294 294 294 293 293 291 290 290 291 291 292 293 295 297 298 299 299 300 300 302 303 303 303 303 301 300 299 300 302
285 285 286 286 285 284 283 282 282 283 283 284 285 285 288 291 292 290 288 288 290 290 290 291 292 293 296 295 293 295 301 306 311 312 309 308 308 305 304 306 303 299 298 299 302 303 302 302 303 302 300 298 297 296 294 293 293 293 293 292 292 291 290 289 290 291 291 292 294 295 297 298 299 299 299 301 302 303 303 303 303 302 301 301 302 304
284 284 285 285 285 283 282 282 282 282 282 282 283 286 289 290 288 288 287 288 288 288 291 293 293 294 295 292 292 297 303 306 309 310 307 307 308 306 304 305 302 298 298 299 301 301 301 301 300 299 298 297 296 294 292 291 291 291 292 291 291 290 289 289 290 290 291 293 295 296 297 298 298 298 300 301 302 303 303 303 302 302 301 302 304 306
283 283 283 282 282 281 282 283 283 281 281 282 284 287 288 286 285 286 287 287 288 288 290 292 293 294 292 291 295 301 305 308 309 308 307 308 308 305 304 303 300 297 297 299 299 299 299 299 298 297 296 295 293 291 290 290 290 291 292 291 290 289 289 290 290 291 292 294 296 297 297 297 297 299 300 302 303 304 303 303 302 302 302 304 305 306
282 281 280 279 280 281 283 283 282 282 283 286 287 286 285 285 285 285 285 287 288 287 288 292 293 291 290 293 298 302 306 309 309 307 307 308 306 304 303 301 297 296 297 298 297 296 297 296 294 294 293 292 291 289 289 290 292 293 292 291 290 289 289 289 290 292 294 296 297 297 296 296 298 299 301 302 303 304 303 302 303 302 303 305 306 305
280 278 278 280 282 282 282 281 282 285 287 287 286 285 285 285 285 285 286 286 286 286 289 291 291 290 292 295 299 303 308 309 307 307 307 306 305 303 301 298 295 294 295 295 293 294 294 292 291 291 291 291 289 289 290 291 293 293 292 291 290 289 289 290 292 294 296 297 297 297 296 297 298 300 301 303 303 303 303 302 302 302 304 305 305 304
278 277 277 280 281 280 281 283 284 285 284 284 284 284 285 285 286 286 285 285 285 286 289 288 288 291 295 298 303 307 309 308 307 308 308 305 303 301 298 295 293 292 292 291 290 291 291 289 289 290 290 290 289 290 291 293 294 293 292 291 289 289 290 292 294 296 297 297 297 298 298 298 299 300 301 302 302 302 302 302 302 303 304 305 304 303
278 277 278 279 279 280 282 283 283 283 283 284 283 283 285 286 286 285 284 286 287 286 285 283 284 290 296 301 307 309 307 307 309 309 307 303 300 298 295 293 292 292 292 290 289 289 288 287 289 290 290 290 290 291 293 294 294 293 291 290 289 290 293 295 297 297 298 299 299 299 299 299 300 300 301 301 301 301 301 301 301 303 305 305 303 303
278 278 278 278 278 279 280 280 281 281 282 282 283 287 289 289 288 286 286 286 283 281 281 280 281 288 296 304 308 306 304 306 308 308 304 300 298 296 295 295 294 294 293 291 289 287 287 287 288 289 289 290 291 292 293 294 293 292 290 289 290 293 296 297 298 299 299 300 300 300 300 300 300 300 300 300 300 300 300 300 301 303 305 305 303 303
277 277 277 277 277 276 277 278 279 280 281 283 288 290 288 286 287 286 284 282 280 282 283 280 280 289 299 307 306 303 303 306 309 307 302 298 296 295 294 295 295 294 293 290 287 286 286 287 288 288 289 290 291 292 293 293 292 290 289 289 292 295 297 298 300 300 300 300 300 300 299 299 299 299 299 299 299 299 299 300 301 303 305 305 304 304
275 274 273 273 272 272 274 277 280 282 284 286 287 284 281 283 284 283 283 283 284 286 286 281 283 292 303 307 303 301 303 307 310 305 299 298 296 293 292 293 293 294 292 288 285 285 285 287 287 288 289 290 290 291 292 291 289 288 288 290 293 296 298 300 301 301 300 299 299 299 299 299 299 299 299 298 298 298 299 300 301 303 305 305 304 304
274 273 272 271 272 273 277 281 283 284 283 281 280 278 279 281 282 283 286 285 285 287 286 284 288 297 304 303 301 302 305 307 307 303 299 298 293 290 290 291 293 292 287 284 283 283 284 286 287 288 289 289 290 291 290 288 286 286 289 291 294 297 299 301 301 301 300 299 298 298 299 299 299 299 299 298 298 298 299 300 301 303 305 305 304 304
274 274 274 275 276 277 280 283 283 282 278 277 278 278 279 281 282 284 285 284 286 288 286 287 294 300 301 300 300 302 305 306 305 302 298 293 287 287 289 290 290 286 283 282 282 282 283 285 286 287 288 289 290 289 287 284 284 287 290 292 295 299 301 302 301 300 299 299 298 298 299 300 299 299 299 298 298 298 299 299 301 304 305 304 304 304
275 275 276 277 277 279 281 282 282 280 278 278 278 279 280 281 282 283 282 283 285 286 286 292 298 298 299 301 301 304 306 306 303 298 292 287 286 288 289 287 286 283 282 281 281 281 283 284 285 286 287 288 288 286 283 282 285 288 290 293 298 301 303 302 301 300 299 298 299 299 300 300 299 299 299 298 298 298 298 299 301 304 304 303 303 303
274 274 275 277 278 279 280 280 280 278 277 278 278 278 280 281 281 281 281 283 284 286 290 296 297 294 299 304 304 305 307 303 297 293 290 288 288 287 286 286 286 284 283 282 281 281 282 283 284 286 287 287 285 281 280 282 285 288 291 295 300 303 303 302 301 300 299 298 299 299 299 299 299 299 298 298 298 298 298 299 301 304 305 303 303 304
273 274 277 279 280 279 279 280 280 278 277 277 277 278 280 281 281 281 282 285 287 289 292 295 293 293 300 307 307 305 302 297 293 293 291 288 286 284 284 286 287 286 284 281 280 280 281 282 284 285 285 283 280 278 280 283 286 289 293 298 302 304 304 302 301 300 299 299 299 299 299 299 298 298 298 298 298 297 298 299 301 304 305 304 303 304
275 277 279 280 280 279 279 281 281 279 278 278 278 279 280 281 282 284 286 288 288 288 290 290 290 293 302 310 307 299 295 294 294 292 288 285 284 282 283 286 287 285 283 280 279 279 281 283 284 283 281 279 277 278 280 284 288 292 297 301 303 305 304 303 301 300 299 298 298 298 298 298 298 298 298 298 298 297 298 299 302 305 306 305 303 304
278 280 281 282 280 280 282 283 281 281 279 276 277 279 282 284 287 288 289 288 286 286 287 286 288 295 305 307 300 294 294 297 296 291 285 284 284 282 283 285 285 284 282 279 278 279 281 282 281 279 277 275 276 278 282 286 291 295 300 303 305 305 305 303 301 299 298 297 297 297 297 297 297 298 298 298 298 298 298 300 302 305 306 305 303 304
278 280 283 283 281 282 283 282 280 278 274 273 277 283 287 289 291 290 287 286 286 286 285 285 290 297 301 298 294 293 296 298 296 291 287 286 284 283 284 284 283 283 281 278 278 280 280 279 278 275 273 273 275 279 283 288 293 298 302 305 306 306 304 302 299 297 297 297 297 297 297 297 298 298 299 299 298 299 300 301 304 306 306 304 304 305
276 278 281 282 280 280 281 282 279 273 271 277 284 288 290 291 291 288 286 286 286 284 283 286 290 293 294 294 294 293 294 295 293 290 289 287 286 285 284 283 284 284 281 279 280 280 279 277 274 272 270 272 276 280 285 290 295 300 304 306 306 305 303 301 299 297 296 296 297 297 297 298 298 299 299 299 299 299 301 303 305 306 305 304 304 306
278 279 279 279 278 280 282 282 277 273 277 285 287 288 290 291 291 290 288 287 285 283 283 284 285 288 294 296 294 291 291 290 287 288 290 288 285 284 284 284 285 283 282 281 281 279 277 275 273 270 269 271 275 280 286 293 297 302 305 307 307 305 303 300 298 297 296 296 297 298 298 299 299 299 299 299 299 301 302 304 305 306 305 304 305 308
279 279 279 278 277 278 280 279 277 279 283 284 283 287 292 293 294 292 288 284 282 281 282 283 285 292 296 295 291 289 287 284 283 288 293 287 283 283 285 285 285 284 283 282 280 278 276 274 273 270 268 271 277 283 290 295 299 302 305 307 307 306 303 301 299 298 297 298 299 299 300 299 299 299 299 299 300 302 303 305 306 306 305 305 307 309
279 279 279 278 278 278 278 279 279 279 278 277 281 290 295 295 292 287 283 280 280 284 288 289 291 296 295 292 290 287 283 281 284 293 296 288 284 285 286 286 286 286 284 282 280 279 277 274 271 268 268 273 280 287 294 297 299 302 304 306 307 306 304 302 300 299 299 299 300 300 300 299 299 299 299 300 301 303 304 305 306 305 305 306 308 310
279 280 280 279 278 278 277 275 273 272 272 276 282 287 291 291 287 283 281 281 284 292 296 294 294 294 291 289 289 287 283 283 288 296 297 289 286 288 288 287 287 286 285 284 282 280 277 273 269 267 271 277 285 292 296 298 298 300 303 305 306 305 304 303 302 301 301 300 301 300 300 299 299 299 300 301 302 303 305 305 305 305 305 306 308 311
278 279 280 277 275 273 271 269 270 272 276 282 285 286 287 286 283 282 281 283 290 298 298 293 291 289 287 288 289 288 287 287 290 294 292 288 289 290 289 288 288 286 286 285 283 281 277 272 267 269 276 283 291 296 298 297 297 299 301 303 305 305 304 303 302 302 301 301 301 300 300 299 299 300 300 301 303 304 305 305 305 305 305 307 309 311
276 277 276 272 270 269 268 269 271 274 280 286 290 289 284 280 279 279 280 286 295 300 296 292 290 288 287 288 290 293 295 296 295 294 292 290 291 291 290 289 288 287 287 286 285 282 277 270 267 272 282 290 295 298 298 296 296 297 299 302 304 305 304 303 303 302 302 301 301 300 300 299 299 300 301 302 303 305 305 305 305 305 306 307 310 312
273 272 270 268 268 269 269 271 272 275 280 285 288 284 279 278 277 276 280 289 297 298 298 296 291 288 287 286 290 297 301 301 299 297 296 294 292 290 289 288 286 286 286 285 284 282 278 271 266 273 286 294 297 298 297 295 294 295 297 300 302 304 304 303 303 303 302 301 300 300 300 300 300 300 301 302 304 304 305 304 304 305 306 308 310 312
269 269 268 268 270 271 272 273 273 274 277 281 283 281 279 278 277 276 281 288 292 294 296 294 289 286 285 288 295 300 300 299 298 297 296 295 293 291 289 287 286 286 284 283 283 283 281 273 268 275 288 294 295 295 295 294 292 292 295 299 301 303 303 303 304 304 302 301 300 299 300 300 300 300 301 303 304 304 304 304 304 305 306 308 311 313
267 268 270 270 270 272 273 272 271 273 277 279 280 279 278 277 277 280 284 287 289 292 291 287 286 287 289 295 300 299 295 294 295 295 294 293 292 291 289 289 288 286 283 282 282 283 281 276 274 281 289 292 292 293 293 292 290 291 294 298 301 302 303 303 304 304 302 300 299 299 299 300 300 301 302 303 303 303 303 304 304 305 307 309 311 314
268 268 270 271 271 272 272 271 271 275 278 277 275 274 275 276 279 283 287 289 290 290 285 281 283 289 294 298 298 293 289 290 291 290 289 289 290 289 287 286 286 286 284 282 282 284 284 283 283 285 288 290 291 291 290 289 288 290 294 298 300 302 303 303 304 304 302 299 298 299 299 300 300 301 302 303 302 302 303 303 304 306 307 310 312 315
268 268 270 271 272 272 272 272 274 275 275 274 274 275 276 279 281 283 285 287 287 285 280 278 282 288 292 293 291 288 286 286 286 285 284 285 286 285 283 282 283 285 286 286 287 289 288 286 285 286 287 289 289 288 287 287 288 291 295 299 300 302 303 304 305 304 301 298 298 299 299 300 301 301 302 302 302 302 303 303 305 306 308 311 313 316
270 271 271 272 272 272 272 273 274 276 276 276 277 276 276 277 279 281 283 284 285 282 278 277 281 286 288 289 288 287 285 283 281 282 283 284 284 282 281 281 283 286 289 291 292 291 286 285 286 287 288 288 286 285 285 286 289 293 297 299 301 302 304 305 305 304 300 297 297 299 300 300 301 301 301 301 300 301 302 303 305 307 309 312 314 317
272 272 272 272 273 273 273 274 276 277 277 277 277 276 276 277 279 281 283 283 281 278 276 279 283 286 287 288 289 289 287 283 280 282 284 285 283 281 282 284 286 288 290 292 291 288 286 288 290 289 287 285 283 283 285 287 291 295 298 300 302 302 303 304 304 302 299 296 296 297 299 300 300 300 300 300 300 301 302 304 306 308 310 313 315 318
271 272 272 272 272 273 274 275 277 277 276 276 277 277 279 280 281 280 279 278 277 276 278 280 283 285 286 287 287 287 288 285 281 281 283 284 283 284 285 287 289 290 290 290 288 288 289 291 290 287 285 281 280 282 286 289 292 296 299 301 301 301 302 304 303 301 299 297 295 295 297 298 298 299 299 299 299 301 303 306 308 310 312 314 316 318
268 269 270 271 272 272 273 274 275 275 275 276 277 278 279 280 279 277 277 277 277 278 279 281 283 284 285 285 285 286 287 285 282 281 282 284 286 287 288 288 289 289 290 289 288 288 290 290 289 287 284 279 278 282 287 289 292 297 300 300 300 300 302 303 302 300 299 298 295 294 295 296 297 297 298 298 299 301 304 306 309 311 313 315 317 320
264 265 266 268 269 270 272 273 275 275 275 276 277 277 278 279 279 279 279 279 279 279 280 281 282 283 283 283 284 285 285 283 280 279 279 280 283 286 287 286 287 288 288 288 286 286 287 287 286 284 280 277 279 282 285 288 292 297 299 298 298 299 301 303 302 300 298 297 295 294 294 295 296 296 297 298 300 302 305 307 309 312 315 317 319 321
262 264 266 267 268 270 271 273 274 275 275 276 277 278 279 281 281 280 280 280 280 281 282 283 283 283 283 282 283 282 281 278 276 275 276 276 279 283 284 283 284 286 287 286 285 285 286 287 286 280 276 277 281 282 283 287 292 295 296 296 296 298 301 302 301 299 297 296 294 293 293 293 294 295 296 298 301 304 307 309 312 314 317 319 321 324
Height
5833 5832 5834 5834 5831 5829 5828 5828 5827 5825 5824 5823 5821 5820 5820 5819 5819 5818 5815 5813 5810 5805 5806 5807 5801 5802 5807 5809 5811 5807 5802 5801 5800 5798 5797 5796 5794 5792 5791 5789 5787 5785 5783 5780 5778 5776 5775 5774 5773 5771 5769 5767 5766 5764 5763 5762 5760 5758 5756 5755 5753 5752 5751 5749 5748 5747 5745 5743 5742 5740 5739 5738 5736 5734 5732 5730 5728 5725 5722 5720 5718 5716 5713 5711 5709 5706
5827 5827 5830 5829 5825 5825 5824 5823 5822 5821 5819 5818 5816 5815 5815 5815 5813 5813 5811 5808 5806 5801 5800 5801 5796 5798 5802 5802 5805 5804 5799 5796 5795 5794 5793 5791 5790 5788 5787 5785 5783 5780 5778 5775 5773 5771 5770 5769 5767 5766 5764 5762 5760 5759 5758 5756 5754 5752 5750 5749 5748 5747 5745 5744 5742 5740 5739 5737 5735 5734 5732 5731 5729 5728 5725 5723 5720 5717 5715 5713 5711 5708 5706 5703 5700 5698
5822 5823 5825 5824 5821 5821 5819 5818 5818 5816 5815 5813 5811 5810 5810 5810 5807 5806 5806 5804 5801 5796 5794 5794 5790 5792 5797 5797 5799 5800 5796 5792 5789 5789 5789 5787 5786 5784 5783 5781 5778 5776 5773 5771 5769 5766 5765 5764 5762 5761 5759 5757 5755 5753 5752 5749 5747 5746 5744 5743 5742 5741 5739 5737 5736 5734 5732 5731 5729 5727 5726 5724 5722 5721 5718 5715 5712 5710 5707 5705 5703 5701 5698 5695 5692 5689
5816 5819 5820 5819 5817 5816 5815 5814 5813 5812 5810 5808 5806 5805 5805 5805 5801 5799 5800 5798 5796 5792 5789 5787 5783 5784 5789 5790 5794 5795 5793 5790 5784 5784 5784 5782 5781 5780 5779 5776 5773 5770 5768 5766 5764 5762 5760 5759 5757 5756 5753 5751 5750 5748 5746 5743 5741 5740 5738 5737 5736 5734 5733 5732 5730 5728 5726 5725 5723 5722 5720 5718 5716 5713 5711 5707 5705 5703 5700 5697 5695 5693 5690 5687 5683 5679
5812 5813 5813 5813 5813 5811 5810 5809 5808 5807 5805 5803 5802 5801 5800 5799 5797 5794 5792 5791 5790 5787 5785 5782 5776 5776 5778 5780 5785 5788 5788 5787 5782 5779 5777 5776 5776 5775 5774 5772 5768 5765 5762 5761 5760 5757 5755 5754 5752 5751 5748 5746 5745 5743 5740 5738 5736 5734 5733 5731 5730 5728 5727 5725 5724 5722 5721 5719 5717 5716 5714 5712 5709 5706 5704 5701 5698 5696 5693 5689 5687 5684 5681 5678 5674 5669
5807 5809 5808 5808 5807 5806 5805 5804 5804 5801 5798 5797 5797 5798 5795 5793 5792 5789 5787 5784 5782 5781 5780 5778 5773 5769 5767 5769 5775 5779 5779 5780 5780 5777 5771 5768 5769 5770 5769 5767 5763 5760 5757 5757 5756 5753 5751 5749 5747 5745 5743 5741 5739 5737 5734 5732 5730 5728 5726 5725 5723 5722 5720 5719 5717 5716 5714 5713 5711 5710 5708 5705 5702 5699 5697 5695 5692 5689 5686 5683 5680 5676 5673 5670 5665 5660
5803 5805 5803 5802 5801 5800 5799 5799 5799 5796 5792 5791 5792 5793 5790 5788 5787 5784 5782 5779 5776 5774 5772 5774 5773 5763 5755 5760 5768 5770 5770 5772 5774 5773 5768 5763 5762 5763 5763 5760 5756 5753 5751 5751 5750 5748 5746 5743 5741 5739 5737 5735 5732 5730 5727 5725 5723 5721 5719 5718 5716 5715 5714 5712 5711 5710 5708 5707 5705 5703 5701 5698 5695 5693 5690 5687 5685 5682 5679 5676 5673 5669 5664 5660 5656 5651
5799 5800 5798 5797 5796 5795 5794 5794 5793 5791 5787 5785 5786 5787 5785 5784 5781 5778 5777 5774 5772 5769 5764 5769 5773 5759 5746 5751 5761 5763 5765 5767 5767 5767 5764 5760 5757 5756 5756 5753 5749 5745 5744 5744 5743 5741 5739 5737 5735 5732 5729 5727 5725 5722 5720 5718 5716 5714 5713 5712 5710 5709 5707 5706 5705 5704 5702 5700 5698 5696 5694 5691 5689 5686 5683 5680 5678 5675 5672 5668 5665 5661 5656 5651 5646 5641
5794 5793 5793 5792 5791 5790 5790 5789 5787 5785 5783 5781 5781 5780 5779 5778 5775 5773 5771 5768 5768 5763 5758 5766 5770 5757 5743 5743 5753 5758 5759 5760 5760 5760 5758 5756 5754 5751 5750 5746 5742 5738 5736 5736 5735 5733 5732 5729 5727 5725 5722 5720 5718 5715 5713 5711 5710 5708 5707 5705 5704 5702 5701 5700 5699 5697 5695 5693 5691 5689 5687 5684 5681 5679 5676 5673 5671 5668 5665 5661 5657 5653 5648 5642 5637 5631
5788 5787 5787 5786 5786 5786 5784 5783 5781 5780 5778 5777 5776 5774 5773 5771 5769 5767 5764 5763 5763 5755 5754 5762 5762 5753 5740 5735 5747 5754 5753 5753 5753 5753 5752 5751 5749 5746 5744 5740 5735 5732 5730 5728 5728 5726 5724 5722 5720 5718 5715 5713 5711 5709 5707 5705 5704 5702 5700 5699 5697 5696 5694 5693 5692 5690 5688 5686 5684 5682 5679 5677 5674 5672 5669 5666 5664 5661 5658 5654 5649 5645 5640 5634 5628 5622
5783 5782 5781 5781 5781 5780 5779 5778 5776 5775 5774 5773 5771 5769 5767 5765 5762 5760 5758 5758 5756 5749 5751 5756 5754 5749 5735 5729 5742 5749 5747 5748 5747 5746 5745 5744 5742 5740 5737 5733 5728 5726 5723 5720 5720 5719 5717 5715 5713 5711 5709 5707 5705 5703 5701 5699 5698 5696 5694 5692 5690 5689 5688 5686 5685 5683 5681 5679 5677 5674 5672 5669 5666 5664 5662 5659 5656 5653 5649 5646 5641 5637 5631 5625 5619 5614
5777 5776 5776 5776 5775 5775 5774 5772 5771 5770 5769 5768 5766 5764 5761 5758 5755 5753 5752 5753 5749 5743 5746 5748 5747 5742 5729 5727 5739 5740 5739 5742 5742 5741 5740 5737 5735 5733 5730 5725 5722 5721 5717 5713 5712 5712 5710 5708 5707 5705 5703 5701 5698 5696 5695 5692 5691 5689 5687 5685 5683 5682 5681 5680 5678 5676 5674 5672 5669 5667 5664 5661 5659 5656 5654 5651 5648 5645 5641 5638 5633 5628 5622 5616 5610 5604
5770 5770 5770 5769 5770 5770 5768 5766 5765 5764 5763 5762 5760 5758 5755 5752 5749 5747 5746 5745 5741 5738 5740 5741 5738 5732 5724 5728 5735 5732 5731 5735 5736 5737 5735 5732 5730 5727 5722 5719 5717 5715 5710 5707 5706 5706 5704 5702 5701 5699 5696 5694 5692 5689 5688 5685 5683 5682 5680 5678 5676 5675 5674 5673 5671 5668 5666 5664 5661 5659 5656 5654 5651 5649 5647 5644 5640 5637 5634 5630 5625 5619 5614 5608 5602 5596
5762 5763 5764 5763 5764 5763 5761 5760 5759 5757 5757 5755 5754 5752 5749 5747 5743 5741 5740 5737 5732 5733 5735 5734 5730 5723 5721 5726 5727 5723 5725 5729 5732 5732 5729 5726 5725 5720 5716 5714 5712 5710 5704 5701 5701 5699 5698 5696 5694 5692 5689 5687 5684 5682 5681 5678 5677 5675 5673 5671 5670 5669 5667 5665 5663 5660 5658 5656 5653 5651 5648 5646 5644 5641 5639 5635 5632 5629 5625 5621 5616 5610 5605 5600 5595 5590
5755 5754 5756 5757 5756 5756 5755 5754 5752 5751 5749 5748 5747 5745 5743 5743 5740 5736 5734 5729 5726 5728 5729 5726 5723 5718 5718 5720 5717 5714 5718 5723 5725 5726 5723 5721 5719 5714 5710 5709 5707 5703 5698 5696 5694 5693 5691 5689 5687 5685 5682 5680 5677 5676 5674 5671 5670 5668 5666 5665 5663 5662 5660 5657 5655 5652 5650 5648 5645 5643 5641 5639 5636 5633 5630 5627 5624 5620 5616 5611 5606 5600 5595 5590 5586 5582
5747 5746 5749 5748 5748 5749 5748 5747 5746 5744 5742 5741 5740 5738 5737 5738 5735 5729 5726 5725 5723 5721 5722 5720 5715 5714 5716 5712 5708 5710 5715 5718 5719 5719 5716 5715 5712 5708 5704 5703 5700 5695 5691 5689 5687 5686 5684 5682 5680 5678 5675 5673 5671 5669 5667 5665 5663 5661 5660 5658 5656 5654 5652 5649 5647 5644 5642 5640 5637 5635 5633 5631 5629 5625 5622 5619 5615 5611 5606 5601 5597 5591 5585 5581 5577 5572
5740 5739 5742 5740 5739 5740 5739 5739 5740 5737 5734 5734 5734 5734 5732 5731 5728 5722 5719 5720 5719 5714 5716 5715 5708 5709 5710 5702 5700 5708 5712 5713 5713 5712 5710 5708 5705 5701 5698 5697 5693 5688 5684 5683 5681 5680 5678 5675 5674 5671 5668 5667 5665 5662 5660 5658 5657 5655 5653 5651 5648 5646 5644 5642 5639 5636 5634 5632 5630 5628 5626 5623 5621 5617 5614 5610 5606 5602 5597 5591 5586 5582 5576 5571 5567 5562
5734 5732 5734 5733 5730 5731 5731 5730 5730 5729 5727 5727 5727 5728 5725 5721 5720 5717 5713 5713 5712 5706 5707 5710 5705 5702 5700 5693 5694 5704 5707 5705 5705 5703 5702 5701 5698 5695 5692 5690 5685 5680 5677 5675 5673 5672 5670 5668 5666 5664 5662 5660 5658 5656 5654 5652 5650 5648 5646 5644 5641 5639 5637 5634 5632 5629 5627 5624 5622 5620 5618 5615 5612 5609 5605 5601 5597 5592 5587 5581 5576 5571 5567 5561 5557 5552
5727 5724 5725 5726 5722 5723 5724 5722 5720 5721 5721 5719 5719 5719 5716 5713 5711 5710 5707 5705 5704 5698 5696 5703 5703 5693 5688 5690 5693 5698 5702 5699 5697 5695 5693 5692 5690 5686 5684 5681 5676 5672 5669 5667 5665 5663 5663 5661 5658 5656 5655 5654 5652 5649 5647 5645 5644 5642 5639 5637 5634 5632 5629 5627 5624 5622 5620 5617 5615 5613 5610 5607 5604 5600 5596 5592 5588 5583 5577 5572 5567 5562 5557 5552 5547 5542
5719 5714 5715 5718 5717 5716 5717 5715 5714 5716 5714 5711 5709 5709 5707 5705 5703 5703 5701 5697 5695 5691 5687 5693 5694 5683 5679 5687 5691 5693 5697 5694 5691 5688 5685 5683 5681 5677 5675 5671 5667 5663 5661 5658 5657 5656 5655 5653 5650 5649 5648 5647 5645 5642 5641 5639 5637 5635 5633 5630 5627 5624 5622 5620 5617 5615 5613 5610 5608 5605 5602 5599 5595 5591 5587 5582 5578 5573 5567 5562 5557 5552 5547 5542 5537 5532
5709 5705 5704 5709 5709 5708 5708 5709 5708 5707 5705 5702 5701 5701 5700 5699 5697 5694 5692 5690 5688 5685 5682 5681 5680 5674 5674 5682 5686 5686 5688 5686 5683 5681 5677 5676 5673 5669 5666 5663 5659 5656 5653 5650 5649 5649 5648 5645 5643 5642 5641 5639 5638 5636 5635 5633 5631 5628 5626 5623 5620 5617 5615 5613 5610 5608 5605 5603 5600 5597 5594 5590 5586 5582 5577 5572 5567 5563 5557 5552 5547 5543 5538 5533 5527 5523
5699 5695 5695 5697 5698 5698 5700 5701 5698 5695 5695 5694 5692 5693 5694 5694 5692 5684 5682 5684 5683 5678 5675 5670 5665 5665 5669 5677 5680 5678 5677 5676 5676 5673 5669 5667 5664 5661 5658 5654 5651 5648 5645 5643 5643 5642 5639 5637 5636 5634 5633 5632 5630 5629 5628 5626 5624 5621 5619 5616 5613 5611 5608 5606 5603 5600 5598 5595 5592 5589 5585 5581 5577 5572 5567 5562 5558 5553 5547 5542 5537 5533 5528 5523 5518 5513
5689 5685 5685 5685 5687 5690 5693 5692 5689 5686 5685 5683 5683 5687 5687 5686 5684 5678 5674 5676 5674 5669 5666 5659 5651 5653 5666 5675 5675 5671 5668 5669 5669 5666 5662 5658 5654 5651 5648 5645 5643 5640 5638 5637 5635 5634 5632 5630 5629 5627 5626 5625 5623 5622 5621 5619 5617 5614 5611 5609 5606 5604 5601 5598 5596 5593 5589 5587 5583 5580 5576 5572 5567 5563 5558 5553 5548 5543 5537 5532 5528 5523 5518 5513 5508 5503
5679 5674 5674 5674 5676 5681 5683 5682 5680 5677 5676 5675 5677 5680 5678 5675 5675 5671 5666 5665 5662 5658 5656 5649 5640 5644 5662 5671 5668 5663 5661 5661 5662 5660 5655 5650 5647 5644 5640 5638 5636 5633 5632 5630 5628 5627 5625 5623 5622 5620 5618 5617 5616 5615 5613 5611 5609 5606 5604 5602 5599 5596 5593 5590 5588 5585 5581 5578 5574 5571 5566 5562 5558 5553 5548 5543 5538 5533 5527 5522 5518 5513 5508 5503 5498 5493
5668 5664 5663 5663 5663 5667 5671 5671 5670 5669 5669 5669 5671 5671 5667 5667 5667 5662 5659 5656 5649 5646 5647 5639 5630 5639 5657 5662 5657 5656 5655 5654 5655 5651 5647 5644 5640 5637 5634 5632 5630 5627 5626 5623 5621 5619 5618 5616 5614 5612 5610 5609 5608 5607 5605 5603 5601 5599 5596 5594 5591 5588 5586 5583 5580 5576 5573 5569 5565 5561 5557 5553 5549 5544 5539 5534 5528 5523 5518 5513 5508 5503 5498 5493 5488 5483
5656 5653 5652 5652 5650 5652 5658 5661 5662 5663 5661 5659 5661 5661 5660 5661 5659 5654 5652 5647 5637 5634 5636 5630 5624 5634 5651 5653 5649 5649 5648 5647 5647 5642 5638 5637 5633 5629 5628 5626 5624 5621 5618 5616 5614 5612 5610 5609 5607 5605 5603 5602 5601 5600 5598 5595 5593 5591 5588 5586 5583 5580 5578 5575 5572 5568 5564 5560 5556 5552 5548 5543 5539 5534 5529 5524 5519 5513 5508 5503 5499 5493 5488 5483 5478 5473
5644 5641 5642 5643 5640 5641 5647 5654 5657 5654 5649 5649 5652 5653 5654 5654 5652 5649 5643 5637 5630 5623 5621 5626 5626 5626 5637 5645 5643 5642 5641 5639 5638 5634 5630 5628 5624 5622 5621 5619 5617 5613 5610 5609 5607 5605 5603 5601 5599 5597 5595 5594 5593 5592 5590 5587 5585 5583 5580 5577 5575 5572 5570 5566 5563 5560 5556 5552 5547 5543 5538 5534 5529 5524 5519 5514 5509 5504 5499 5494 5489 5484 5478 5473 5468 5463
5633 5629 5633 5635 5632 5634 5638 5644 5648 5644 5639 5641 5643 5644 5647 5646 5645 5642 5633 5630 5629 5613 5605 5622 5628 5616 5621 5634 5637 5636 5634 5630 5628 5626 5622 5618 5616 5615 5614 5611 5608 5604 5602 5602 5600 5597 5595 5593 5591 5589 5588 5587 5585 5584 5582 5579 5577 5574 5572 5569 5566 5564 5561 5558 5554 5551 5547 5543 5538 5534 5529 5524 5519 5515 5510 5505 5499 5494 5489 5484 5479 5474 5469 5463 5458 5453
5623 5619 5625 5627 5623 5626 5630 5632 5636 5632 5628 5632 5633 5634 5639 5639 5635 5632 5625 5626 5626 5607 5598 5614 5618 5607 5612 5624 5627 5629 5627 5620 5618 5617 5614 5611 5609 5607 5604 5601 5598 5595 5595 5594 5592 5589 5586 5584 5583 5581 5580 5579 5577 5575 5574 5571 5569 5566 5563 5561 5558 5555 5552 5549 5546 5542 5538 5534 5529 5525 5520 5515 5510 5505 5500 5495 5490 5484 5480 5475 5470 5464 5459 5453 5448 5443
5614 5611 5619 5620 5613 5615 5620 5623 5625 5621 5617 5619 5622 5625 5631 5631 5626 5622 5619 5621 5619 5605 5599 5605 5602 5599 5609 5616 5616 5618 5617 5610 5608 5608 5607 5604 5601 5597 5594 5592 5589 5587 5587 5586 5583 5580 5578 5576 5575 5573 5572 5571 5569 5567 5566 5563 5560 5557 5555 5553 5550 5546 5543 5540 5537 5533 5529 5525 5520 5516 5511 5506 5501 5496 5491 5486 5480 5475 5470 5465 5460 5455 5449 5444 5438 5432
5607 5605 5611 5612 5601 5599 5610 5616 5613 5609 5606 5606 5608 5614 5622 5622 5617 5614 5614 5615 5610 5601 5598 5598 5590 5591 5605 5610 5605 5605 5606 5603 5600 5599 5598 5596 5592 5587 5584 5582 5580 5579 5580 5578 5574 5571 5569 5568 5567 5565 5563 5562 5561 5559 5557 5554 5552 5549 5547 5544 5541 5538 5534 5531 5527 5523 5520 5516 5511 5507 5502 5497 5492 5487 5482 5477 5471 5466 5461 5456 5451 5446 5440 5434 5428 5423
5601 5598 5602 5602 5588 5587 5603 5606 5597 5597 5594 5589 5594 5606 5613 5613 5610 5608 5606 5603 5598 5593 5593 5591 5584 5585 5598 5601 5593 5592 5596 5594 5591 5589 5588 5586 5582 5578 5575 5573 5571 5571 5571 5568 5564 5562 5561 5560 5558 5556 5555 5554 5552 5551 5548 5546 5543 5541 5538 5536 5532 5529 5526 5522 5518 5514 5510 5506 5502 5497 5493 5487 5483 5478 5472 5467 5462 5457 5452 5447 5442 5436 5430 5424 5419 5413
5595 5591 5592 5592 5578 5577 5593 5594 5586 5584 5576 5571 5585 5600 5605 5605 5603 5598 5593 5590 5588 5585 5582 5581 5580 5584 5590 5589 5583 5584 5586 5581 5577 5578 5577 5574 5571 5569 5567 5565 5563 5564 5562 5558 5555 5554 5552 5551 5549 5547 5547 5545 5543 5542 5539 5537 5535 5532 5530 5527 5523 5520 5517 5513 5509 5505 5501 5497 5492 5488 5483 5478 5474 5469 5463 5458 5453 5448 5443 5438 5433 5427 5421 5416 5410 5404
5588 5584 5583 5583 5573 5568 5578 5583 5575 5564 5556 5565 5585 5593 5594 5596 5593 5584 5579 5580 5581 5577 5572 5572 5575 5579 5581 5579 5576 5576 5576 5572 5567 5567 5566 5562 5559 5559 5559 5557 5556 5556 5553 5548 5546 5546 5543 5542 5541 5539 5538 5536 5534 5532 5530 5528 5526 5523 5520 5518 5514 5511 5507 5503 5500 5495 5492 5488 5483 5479 5474 5469 5465 5460 5455 5450 5444 5439 5435 5430 5424 5419 5413 5407 5401 5395
5578 5577 5574 5573 5567 5560 5564 5569 5555 5542 5551 5570 5580 5583 5586 5586 5581 5572 5566 5569 5573 5570 5567 5566 5566 5571 5573 5573 5570 5566 5565 5564 5559 5559 5559 5553 5548 5550 5550 5550 5550 5546 5543 5540 5538 5537 5534 5533 5532 5530 5528 5527 5524 5523 5521 5519 5517 5514 5511 5509 5505 5502 5498 5494 5490 5486 5482 5478 5474 5470 5465 5461 5456 5451 5446 5441 5436 5431 5426 5421 5416 5411 5405 5399 5393 5387
5568 5566 5563 5562 5558 5552 5551 5549 5537 5534 5550 5564 5568 5578 5583 5575 5570 5563 5552 5555 5563 5565 5563 5559 5558 5564 5565 5563 5562 5558 5555 5551 5548 5553 5556 5545 5539 5543 5542 5541 5541 5537 5534 5533 5530 5528 5526 5524 5523 5521 5519 5517 5515 5514 5512 5510 5508 5506 5503 5500 5496 5492 5489 5484 5481 5477 5473 5469 5465 5461 5456 5452 5447 5443 5438 5433 5428 5423 5418 5413 5408 5402 5397 5391 5385 5379
5559 5554 5552 5549 5545 5542 5537 5532 5530 5529 5536 5548 5563 5578 5577 5565 5562 5555 5538 5539 5555 5561 5559 5554 5552 5557 5555 5551 5551 5549 5544 5538 5536 5547 5552 5538 5531 5535 5534 5532 5531 5528 5527 5525 5521 5520 5518 5516 5515 5513 5510 5509 5507 5506 5504 5502 5499 5497 5493 5490 5487 5483 5479 5475 5471 5467 5463 5460 5456 5451 5447 5443 5439 5434 5429 5424 5419 5415 5410 5405 5399 5394 5389 5384 5378 5372
5548 5544 5543 5536 5531 5534 5528 5521 5520 5515 5517 5538 5561 5573 5569 5557 5554 5547 5527 5525 5548 5561 5558 5549 5545 5546 5545 5542 5541 5538 5532 5527 5527 5538 5544 5532 5523 5526 5525 5523 5522 5520 5518 5517 5513 5511 5509 5506 5506 5504 5502 5501 5499 5498 5496 5493 5490 5488 5484 5481 5477 5473 5469 5466 5462 5458 5454 5450 5447 5442 5438 5434 5430 5425 5420 5415 5411 5406 5401 5396 5391 5386 5381 5376 5371 5366
5536 5534 5535 5526 5518 5522 5519 5510 5507 5502 5508 5532 5553 5561 5559 5549 5545 5538 5517 5517 5545 5559 5550 5542 5539 5537 5536 5535 5532 5528 5524 5520 5521 5529 5533 5525 5518 5518 5516 5515 5514 5511 5510 5508 5505 5502 5500 5498 5497 5495 5494 5493 5491 5489 5487 5484 5481 5478 5475 5472 5468 5464 5461 5456 5452 5449 5445 5441 5438 5434 5430 5425 5421 5416 5411 5405 5402 5398 5394 5389 5383 5378 5374 5369 5364 5359
5526 5524 5524 5516 5509 5512 5510 5500 5497 5496 5505 5526 5542 5546 5544 5537 5535 5527 5509 5515 5543 5547 5537 5535 5533 5529 5529 5527 5522 5520 5517 5515 5515 5519 5521 5517 5513 5511 5508 5506 5504 5503 5501 5499 5496 5494 5491 5489 5488 5487 5486 5485 5482 5480 5478 5475 5473 5469 5466 5463 5459 5455 5452 5448 5444 5440 5436 5433 5429 5425 5421 5417 5412 5408 5403 5397 5394 5390 5386 5381 5376 5371 5366 5361 5357 5352
5515 5513 5512 5507 5503 5505 5502 5492 5489 5490 5502 5521 5531 5530 5528 5524 5520 5513 5508 5521 5534 5529 5525 5529 5526 5522 5522 5517 5512 5511 5509 5508 5508 5509 5510 5509 5505 5503 5500 5498 5496 5495 5493 5490 5487 5485 5482 5481 5480 5479 5477 5475 5473 5471 5469 5466 5464 5460 5457 5454 5450 5447 5443 5439 5435 5431 5427 5424 5421 5417 5413 5409 5403 5399 5395 5390 5386 5382 5377 5374 5369 5364 5360 5355 5350 5345
5504 5502 5500 5498 5497 5496 5492 5488 5481 5478 5497 5520 5522 5514 5513 5510 5504 5504 5512 5522 5521 5514 5516 5519 5516 5515 5514 5507 5503 5501 5499 5500 5500 5498 5499 5499 5496 5494 5491 5489 5487 5486 5484 5481 5479 5477 5475 5473 5473 5471 5468 5466 5464 5462 5460 5457 5454 5451 5448 5445 5441 5438 5434 5430 5426 5422 5419 5415 5412 5408 5405 5400 5396 5391 5387 5383 5379 5374 5370 5366 5361 5357 5353 5348 5343 5338
5493 5491 5486 5485 5489 5488 5481 5477 5470 5470 5495 5518 5511 5496 5494 5495 5497 5502 5507 5510 5511 5509 5508 5505 5505 5506 5502 5496 5494 5491 5487 5489 5490 5488 5489 5488 5486 5485 5482 5479 5478 5476 5474 5473 5471 5469 5467 5466 5465 5463 5459 5458 5455 5453 5451 5448 5445 5442 5439 5436 5433 5429 5425 5421 5417 5414 5410 5406 5403 5400 5396 5392 5388 5383 5379 5376 5372 5367 5363 5358 5354 5350 5345 5341 5336 5331
5475 5478 5475 5475 5479 5477 5467 5462 5463 5473 5494 5503 5493 5483 5483 5486 5494 5499 5496 5495 5500 5503 5500 5496 5495 5494 5490 5486 5484 5481 5478 5479 5478 5478 5479 5478 5477 5476 5473 5471 5470 5467 5466 5465 5462 5461 5460 5457 5456 5453 5450 5448 5446 5443 5441 5438 5435 5433 5430 5427 5423 5420 5416 5413 5409 5405 5402 5398 5394 5391 5388 5384 5380 5376 5372 5368 5364 5360 5356 5351 5347 5342 5338 5333 5329 5324
5457 5467 5471 5467 5464 5460 5455 5454 5461 5472 5482 5482 5477 5479 5481 5479 5484 5489 5488 5487 5490 5492 5492 5489 5485 5484 5482 5478 5475 5473 5472 5471 5469 5469 5468 5468 5468 5467 5464 5463 5461 5458 5457 5456 5453 5452 5451 5448 5446 5444 5441 5439 5437 5433 5431 5429 5426 5424 5421 5417 5414 5411 5407 5404 5401 5397 5393 5389 5386 5383 5379 5376 5372 5368 5364 5361 5357 5352 5348 5344 5340 5335 5330 5326 5321 5317
5449 5459 5460 5452 5447 5445 5443 5446 5456 5463 5468 5469 5469 5471 5473 5471 5472 5476 5478 5479 5481 5482 5481 5478 5474 5474 5473 5469 5467 5467 5465 5464 5462 5458 5458 5458 5458 5456 5455 5453 5451 5448 5446 5445 5443 5442 5440 5438 5437 5435 5432 5429 5426 5423 5421 5419 5417 5415 5412 5408 5405 5402 5399 5396 5393 5389 5385 5381 5377 5374 5371 5368 5365 5361 5357 5353 5349 5345 5342 5337 5333 5329 5324 5320 5315 5310
5438 5445 5443 5437 5435 5432 5427 5435 5449 5454 5455 5458 5457 5455 5460 5463 5463 5466 5466 5468 5471 5471 5468 5466 5466 5465 5463 5461 5460 5459 5457 5456 5453 5449 5449 5449 5447 5446 5446 5443 5441 5439 5436 5435 5434 5432 5430 5429 5427 5424 5421 5418 5416 5414 5412 5410 5408 5405 5402 5399 5396 5393 5391 5388 5385 5381 5377 5373 5370 5366 5362 5360 5356 5353 5350 5346 5342 5338 5334 5330 5326 5322 5317 5313 5308 5303
5427 5430 5426 5423 5423 5419 5417 5428 5440 5440 5439 5444 5444 5443 5448 5452 5453 5456 5456 5454 5456 5456 5456 5456 5456 5455 5454 5454 5452 5450 5449 5447 5444 5441 5440 5439 5437 5437 5436 5433 5431 5429 5427 5426 5425 5422 5421 5419 5416 5413 5411 5408 5406 5405 5403 5401 5399 5396 5393 5390 5387 5385 5382 5380 5376 5373 5370 5366 5362 5358 5355 5351 5348 5345 5342 5339 5336 5332 5327 5322 5318 5314 5310 5306 5301 5297
5418 5416 5412 5412 5410 5407 5409 5421 5428 5425 5424 5431 5433 5433 5437 5440 5441 5443 5443 5441 5441 5442 5444 5446 5446 5444 5445 5444 5443 5442 5439 5438 5436 5434 5431 5429 5428 5427 5425 5423 5422 5420 5418 5417 5416 5413 5411 5409 5406 5404 5401 5398 5397 5396 5394 5391 5389 5387 5384 5382 5379 5376 5374 5371 5368 5365 5362 5358 5355 5351 5347 5344 5340 5337 5334 5331 5329 5326 5322 5317 5312 5307 5302 5298 5294 5289
5406 5403 5405 5405 5399 5395 5401 5412 5417 5413 5411 5417 5423 5424 5425 5427 5427 5427 5428 5428 5428 5429 5432 5433 5433 5434 5434 5433 5433 5432 5429 5428 5427 5423 5421 5420 5419 5417 5416 5414 5412 5410 5409 5408 5407 5404 5402 5399 5397 5394 5391 5388 5387 5386 5384 5382 5380 5377 5375 5373 5370 5368 5365 5362 5360 5357 5353 5350 5347 5343 5340 5337 5333 5330 5327 5324 5321 5319 5316 5312 5307 5301 5296 5291 5286 5281
5396 5395 5398 5396 5389 5388 5396 5402 5405 5402 5398 5403 5411 5413 5412 5414 5413 5411 5412 5415 5415 5417 5420 5419 5420 5421 5421 5422 5423 5420 5417 5418 5416 5412 5411 5411 5409 5407 5407 5405 5403 5402 5400 5398 5398 5396 5392 5389 5387 5384 5381 5379 5378 5376 5374 5373 5370 5368 5367 5365 5362 5360 5356 5354 5351 5348 5344 5342 5339 5336 5333 5330 5327 5324 5322 5318 5315 5312 5308 5303 5299 5294 5290 5285 5279 5273